Weather History for Gage, OK

Change the Weather History Date:

Monday, February 4, 2013

  Actual Average Record
Temperature  
Mean Temperature 44 °F -  
Max Temperature 61 °F 48 °F 78 °F (1963)
Min Temperature 28 °F 22 °F -4 °F (1989)
Degree Days  
Heating Degree Days 20    
Moisture  
Dew Point 25 °F    
Average Humidity 46    
Maximum Humidity 72    
Minimum Humidity 21    
Precipitation  
Precipitation 0.00 in - - ()
Sea Level Pressure  
Sea Level Pressure 29.90 in    
Wind  
Wind Speed 8 mph (NNE)    
Max Wind Speed 14 mph    
Max Gust Speed 22 mph    
Visibility 10 miles    
Events      
Averages and records for this station are not official NWS values.
T = Trace of Precipitation, MM = Missing Value Source: NWS Daily Summary

Daily Weather History Graph

Daily Weather History Graph

Search for Another Location

Airport:

Trip Planner

Search our weather history database for the weather conditions in past years. The results will help you decide how hot, cold, wet, or windy it might be!

Date:

Astronomy

Feb. 04, 2013 Rise Set
Actual Time 7:37 AM CST 6:09 PM CST
Civil Twilight 7:10 AM CST 6:35 PM CST
Nautical Twilight 6:40 AM CST 7:06 PM CST
Astronomical Twilight 6:09 AM CST 7:36 PM CST
Moon 2:12 AM CST (2/4) 12:36 PM CST (2/4)
Length of Visible Light 11h 25m
Length of Day
10h 31m
Last Quarter, 37% of the Moon is Illuminated
Feb 4
Last Quarter
Feb 10
New
Feb 17
First Quarter
Feb 25
Full
Mar 4
Last Quarter

Hourly Weather History & Observations

Time (CST) Temp. Windchill Dew Point Humidity Pressure Visibility Wind Dir Wind Speed Gust Speed Precip Events Conditions
12:53 AM 52.0 °F - 30.9 °F 45% 29.77 in 10.0 mi South 12.7 mph 21.9 mph N/A   Clear
1:53 AM 50.0 °F - 33.1 °F 52% 29.77 in 10.0 mi West 5.8 mph - N/A   Clear
2:53 AM 48.9 °F - 34.0 °F 56% 29.75 in 10.0 mi SW 8.1 mph - N/A   Clear
4:53 AM 41.0 °F - 32.0 °F 70% 29.80 in 10.0 mi Calm Calm - N/A   Clear
5:53 AM 41.0 °F 38.0 °F 32.0 °F 70% 29.83 in 10.0 mi North 4.6 mph - N/A   Clear
6:53 AM 37.9 °F 31.5 °F 28.9 °F 70% 29.87 in 10.0 mi North 9.2 mph - N/A   Clear
7:53 AM 36.0 °F 30.3 °F 24.1 °F 62% 29.90 in 10.0 mi North 6.9 mph - N/A   Clear
8:53 AM 39.9 °F 34.5 °F 25.0 °F 55% 29.94 in 10.0 mi North 8.1 mph - N/A   Clear
9:53 AM 46.0 °F 39.9 °F 25.0 °F 44% 29.94 in 10.0 mi NNE 13.8 mph 19.6 mph N/A   Clear
10:53 AM 51.1 °F - 24.1 °F 35% 29.95 in 10.0 mi NNE 13.8 mph - N/A   Clear
11:53 AM 54.0 °F - 24.1 °F 31% 29.94 in 10.0 mi North 13.8 mph - N/A   Clear
12:53 PM 57.0 °F - 24.1 °F 28% 29.92 in 10.0 mi NNE 11.5 mph 19.6 mph N/A   Clear
1:53 PM 60.1 °F - 23.0 °F 24% 29.90 in 10.0 mi NE 12.7 mph 16.1 mph N/A   Clear
2:53 PM 60.1 °F - 21.9 °F 23% 29.88 in 10.0 mi NE 11.5 mph - N/A   Clear
3:53 PM 61.0 °F - 21.0 °F 21% 29.88 in 10.0 mi NNE 6.9 mph - N/A   Clear
4:53 PM 60.1 °F - 21.0 °F 22% 29.89 in 10.0 mi NNE 9.2 mph - N/A   Clear
5:53 PM 52.0 °F - 21.0 °F 30% 29.91 in 10.0 mi NE 5.8 mph - N/A   Clear
6:53 PM 45.0 °F 43.5 °F 21.0 °F 39% 29.93 in 10.0 mi NE 3.5 mph - N/A   Clear
7:53 PM 37.0 °F 34.5 °F 19.9 °F 50% 29.96 in 10.0 mi SE 3.5 mph - N/A   Clear
8:53 PM 36.0 °F 32.1 °F 19.9 °F 52% 29.96 in 10.0 mi South 4.6 mph - N/A   Clear
9:53 PM 35.1 °F 32.2 °F 21.0 °F 57% 29.96 in 10.0 mi SSE 3.5 mph - N/A   Clear
10:53 PM 28.0 °F - 19.9 °F 72% 29.98 in 10.0 mi Calm Calm - N/A   Clear
11:53 PM 32.0 °F - 19.9 °F 61% 29.96 in 10.0 mi Calm Calm - N/A   Clear